Location: Bijele Vode
(45.2833°N, 16.2000°E)
Time: 23:58:24
(UTC+00:00)

Cosmos 1844 Rocket - Pass Details

Date: 18 September 2020
Orbit: 823 x 846 km, 71.0° (Epoch: 26 October)

Event Time Altitude Azimuth Distance (km) Brightness Sun altitude
Rises 17:55:54 0° 166° (SSE) 3,343 5.5 -10.6°
Reaches altitude 10° 17:58:45 10° 153° (SSE) 2,417 4.7 -11.1°
Maximum altitude 18:03:02 24° 102° (ESE) 1,666 3.6 -11.8°
Drops below altitude 10° 18:07:22 10° 51° (NE) 2,437 4.8 -12.5°
Sets 18:10:14 0° 37° (NE) 3,379 5.6 -13.0°
